Weather reports worldwide

Advertisment
Jersey Airport, United Kingdom (3895): temperature & dewpoint: 13.02.2018 14:00:00 - 19.02.2018 14:00:00 (GMT)Jersey Airport, United Kingdom (3895): temperature -20cm & temperature -100cm: 13.02.2018 14:00:00 - 19.02.2018 14:00:00 (GMT)Jersey Airport, United Kingdom (3895): wind speed & gusts: 13.02.2018 14:00:00 - 19.02.2018 14:00:00 (GMT)Jersey Airport, United Kingdom (3895): wind direction: 13.02.2018 14:00:00 - 19.02.2018 14:00:00 (GMT)Jersey Airport, United Kingdom (3895): reduced air pressure: 13.02.2018 14:00:00 - 19.02.2018 14:00:00 (GMT)Jersey Airport, United Kingdom (3895): visibility: 13.02.2018 14:00:00 - 19.02.2018 14:00:00 (GMT)Jersey Airport, United Kingdom (3895): sunshine duration: 13.02.2018 14:00:00 - 19.02.2018 14:00:00 (GMT)Jersey Airport, United Kingdom (3895): precipitation: 13.02.2018 14:00:00 - 19.02.2018 14:00:00 (GMT)
Date & Time tt [°C] td [°C] tt -20cm [°C] tt -100cm [°C] ff [km/h] ff [kn] fx [km/h] fx [kn] dd ppp [hPa] vv [km] sd [min] rr [mm]
19.02.2018 14:00:00 10,0 10,0 - - 18 10 - - WNW - 2,0 - -
19.02.2018 13:00:00 9,9 9,8 - - 16 9 - - WNW 1018,8 0,9 0 0,0
19.02.2018 12:00:00 10,3 10,2 - - 11 6 - - NW 1019,0 9 0 0,0
19.02.2018 11:00:00 9,6 9,5 - - 16 9 - - NW 1019,0 0,3 0 0,0
19.02.2018 10:00:00 9,1 9,0 - - 11 6 - - WNW 1019,0 0,1 0 0,2
19.02.2018 09:00:00 8,6 8,5 6,7 8,0 9 5 - - WNW 1019,0 0,3 0 0,2
19.02.2018 08:00:00 8,5 8,4 - - 8 4 - - NW 1018,9 0,3 0 0,4
19.02.2018 07:00:00 8,4 8,3 - - 5 3 - - NW 1018,8 0,6 0 0,2
19.02.2018 06:00:00 8,7 8,6 - - 8 4 - - NNW 1018,5 0,3 0 0,2
19.02.2018 05:00:00 8,8 8,7 - - 8 4 - - NW 1018,4 0,1 0 0,2
19.02.2018 04:00:00 8,5 8,4 - - 9 5 - - WNW 1018,5 0,1 0 0,2
19.02.2018 03:00:00 8,4 8,3 - - 8 4 - - W 1018,7 0,1 0 0,2
19.02.2018 02:00:00 8,3 8,1 - - 8 4 - - WNW 1019,0 0,1 0 0,0
19.02.2018 01:00:00 8,3 8,2 - - 8 4 - - W 1019,3 0,4 0 0,0
19.02.2018 00:00:00 8,3 8,2 - - 5 3 - - W 1019,6 0,1 - 0,0
18.02.2018 23:00:00 8,1 8,0 - - 4 2 - - WSW 1019,5 0,1 0 0,0
18.02.2018 22:00:00 7,9 7,8 - - 2 1 - - E 1019,7 0,4 0 0,2
18.02.2018 21:00:00 7,9 7,8 - - 4 2 - - E 1019,9 0,3 0 0,0
18.02.2018 20:00:00 7,9 7,7 - - 4 2 - - E 1020,0 0,1 0 0,2
18.02.2018 19:00:00 7,9 7,7 - - 4 2 - - ESE 1019,9 0,2 0 0,0
18.02.2018 18:00:00 8,0 7,8 - - 8 4 - - ESE 1020,0 0,3 0 0,2
18.02.2018 17:00:00 8,2 8,0 - - 8 4 - - SE 1019,6 0,2 0 0,0
18.02.2018 16:00:00 8,2 8,1 - - 11 6 - - S 1019,6 0,2 0 0,2
18.02.2018 15:00:00 8,1 7,9 - - 13 7 - - SSE 1019,6 0,2 0 0,2
18.02.2018 14:00:00 7,8 7,6 - - 15 8 - - SSE 1019,8 0,5 0 0,2
18.02.2018 13:00:00 7,5 7,3 - - 16 9 - - SSE 1020,1 0,3 0 0,4
18.02.2018 12:00:00 7,1 6,9 - - 24 13 - - SSE 1020,4 0,7 0 0,8
18.02.2018 11:00:00 6,8 6,6 - - 29 16 - - SSE 1020,7 1,1 0 1,0
18.02.2018 10:00:00 6,6 6,4 - - 28 15 - - SSE 1020,9 2,1 0 1,0
18.02.2018 09:00:00 6,3 6,1 6,2 8,0 28 15 - - SSE 1020,8 1,1 0 0,6
18.02.2018 08:00:00 6,1 5,8 - - 24 13 - - SSE 1021,2 0,9 0 0,6
18.02.2018 07:00:00 6,0 5,7 - - 24 13 - - SSE 1021,2 4,0 0 0,0
18.02.2018 06:00:00 5,8 5,5 - - 24 13 - - SSE 1021,2 4,5 0 0,6
18.02.2018 05:00:00 5,7 5,3 - - 28 15 - - SE 1021,3 5 0 0,2
18.02.2018 04:00:00 5,7 5,3 - - 28 15 - - SSE 1021,5 3,2 0 0,6
18.02.2018 03:00:00 5,9 4,9 - - 26 14 - - SSE 1022,1 5 0 0,4
18.02.2018 02:00:00 6,4 4,9 - - 22 12 - - S 1022,7 10 0 0,0
18.02.2018 01:00:00 6,8 5,4 - - 15 8 - - S 1023,2 10 0 0,4
18.02.2018 00:00:00 6,9 5,5 - - 13 7 - - SSW 1023,7 10 - 0,6
17.02.2018 23:00:00 7,4 6,4 - - 16 9 - - SSW 1024,1 10 0 0,4
17.02.2018 22:00:00 7,4 6,0 - - 8 4 - - S 1024,0 10 0 0,0
17.02.2018 21:00:00 7,2 5,5 - - 9 5 - - SSW 1024,2 10 0 0,0
17.02.2018 20:00:00 6,4 4,9 - - 9 5 - - SW 1024,2 10 0 0,0
17.02.2018 19:00:00 6,6 5,3 - - 8 4 - - SW 1024,4 10 0 0,0
17.02.2018 18:00:00 6,6 4,7 - - 9 5 - - W 1024,3 10 12 0,0
17.02.2018 17:00:00 8,0 6,4 - - 13 7 - - WSW 1023,8 10 42 0,0
17.02.2018 16:00:00 9,0 6,4 - - 15 8 - - WSW 1023,7 10 36 0,0
17.02.2018 15:00:00 9,2 5,0 - - 13 7 - - WSW 1023,5 10 54 0,0
17.02.2018 14:00:00 9,5 5,4 - - 13 7 - - WSW 1023,6 10 60 0,0
17.02.2018 13:00:00 9,2 4,6 - - 11 6 - - W 1023,7 10 60 0,0
17.02.2018 12:00:00 8,9 4,3 - - 15 8 - - W 1023,7 10 60 0,0
17.02.2018 11:00:00 8,4 3,6 - - 11 6 - - NW 1023,0 10 60 0,0
17.02.2018 10:00:00 7,5 4,2 - - 11 6 - - NW 1022,6 10 54 0,0
17.02.2018 09:00:00 5,9 3,7 6,0 8,0 5 3 - - NW 1022,2 10 60 0,0
17.02.2018 08:00:00 3,6 2,3 - - 8 4 - - NNW 1021,7 10 12 0,0
17.02.2018 07:00:00 3,0 2,0 - - 11 6 - - NNW 1021,0 10 0 0,0
17.02.2018 06:00:00 2,5 1,2 - - 8 4 - - N 1020,5 10 0 0,0
17.02.2018 05:00:00 2,9 1,5 - - 9 5 - - NE 1020,1 10 0 0,0
17.02.2018 04:00:00 1,3 -1,4 - - 13 7 - - E 1019,4 10 0 0,0
17.02.2018 03:00:00 2,8 1,1 - - 13 7 - - E 1019,3 10 0 0,0
17.02.2018 02:00:00 4,4 2,1 - - 13 7 - - E 1019,5 10 0 0,0
17.02.2018 01:00:00 4,7 2,2 - - 9 5 - - E 1020,0 10 0 0,0
17.02.2018 00:00:00 4,8 1,7 - - 13 7 - - ESE 1020,7 10 - 0,0
16.02.2018 23:00:00 5,5 1,9 - - 22 12 - - SE 1020,8 10 0 0,0
16.02.2018 22:00:00 5,3 2,2 - - 18 10 - - SE 1021,5 10 0 0,0
16.02.2018 21:00:00 5,6 2,7 - - 18 10 - - ESE 1021,6 10 0 0,0
16.02.2018 20:00:00 5,5 2,6 - - 16 9 - - ESE 1021,9 10 0 0,0
16.02.2018 19:00:00 4,3 1,9 - - 18 10 - - E 1022,6 10 0 0,0
16.02.2018 18:00:00 4,8 2,3 - - 15 8 - - ESE 1023,1 10 0 0,0
16.02.2018 17:00:00 6,0 2,4 - - 11 6 - - ESE 1023,5 10 0 0,0
16.02.2018 16:00:00 7,2 2,2 - - 16 9 - - SE 1023,9 10 60 0,0
16.02.2018 15:00:00 7,6 2,7 - - 16 9 - - SE 1024,4 7 60 0,0
16.02.2018 14:00:00 8,0 4,0 - - 18 10 - - SE 1025,2 10 60 0,0
16.02.2018 13:00:00 8,0 5,2 - - 21 11 - - SSE 1026,1 10 60 0,0
16.02.2018 12:00:00 8,1 5,4 - - 16 9 - - S 1026,8 10 54 0,0
16.02.2018 11:00:00 8,6 5,8 - - 16 9 - - S 1026,7 10 60 0,0
16.02.2018 10:00:00 7,6 5,3 - - 11 6 - - SSE 1027,0 10 54 0,0
16.02.2018 09:00:00 6,1 3,2 6,2 8,0 5 3 - - SSE 1026,9 10 54 0,0
16.02.2018 08:00:00 5,0 1,7 - - 8 4 - - SSE 1026,5 10 6 0,0
16.02.2018 07:00:00 4,8 2,2 - - 4 2 - - S 1026,0 10 0 0,0
16.02.2018 06:00:00 5,1 2,4 - - 2 1 - - SW 1025,8 10 0 0,0
16.02.2018 05:00:00 4,3 2,4 - - 2 1 - - SSE 1025,6 10 0 0,0
16.02.2018 04:00:00 3,6 1,2 - - 5 3 - - NW 1025,2 10 0 0,0
16.02.2018 03:00:00 4,5 2,2 - - 5 3 - - NW 1025,0 10 0 0,0
16.02.2018 02:00:00 5,4 1,9 - - 5 3 - - W 1024,5 10 0 0,0
16.02.2018 01:00:00 5,6 1,7 - - 9 5 - - WNW 1023,8 10 0 0,0
16.02.2018 00:00:00 6,0 1,4 - - 9 5 - - WNW 1023,7 10 - 0,0
15.02.2018 23:00:00 6,1 2,1 - - 11 6 - - WNW 1023,2 10 0 0,0
15.02.2018 22:00:00 6,3 2,7 - - 13 7 - - W 1022,7 10 0 0,0
15.02.2018 21:00:00 6,2 2,0 - - 11 6 46 25 W 1022,0 10 0 0,0
15.02.2018 20:00:00 7,2 2,0 - - 21 11 - - WNW 1021,2 10 0 0,0
15.02.2018 19:00:00 6,5 3,0 - - 18 10 - - NW 1020,4 10 0 0,0
15.02.2018 18:00:00 7,0 2,9 - - 13 7 - - WNW 1019,5 10 6 0,0
15.02.2018 17:00:00 8,1 3,7 - - 15 8 - - W 1018,5 10 12 0,0
15.02.2018 16:00:00 8,4 3,5 - - 16 9 - - WNW 1017,9 10 0 0,0
15.02.2018 15:00:00 9,1 4,7 - - 18 10 - - WNW 1016,8 10 0 0,0
15.02.2018 14:00:00 9,1 3,7 - - 22 12 - - NW 1016,1 10 0 0,0
15.02.2018 13:00:00 9,7 6,8 - - 16 9 - - W 1015,5 10 0 0,0
15.02.2018 12:00:00 9,9 6,6 - - 16 9 - - W 1014,8 10 6 0,0
15.02.2018 11:00:00 9,1 6,7 - - 13 7 - - WNW 1013,9 10 0 0,0
15.02.2018 10:00:00 9,4 8,0 - - 16 9 - - W 1012,8 10 0 0,0
15.02.2018 09:00:00 9,2 7,9 5,9 8,0 16 9 - - W 1011,5 10 0 0,0
15.02.2018 08:00:00 9,1 8,7 - - 24 13 - - WSW 1010,4 7 0 0,0
15.02.2018 07:00:00 9,2 8,7 - - 22 12 - - WSW 1009,2 4,0 0 0,0
15.02.2018 06:00:00 9,2 8,6 - - 24 13 - - WSW 1008,2 7 0 0,0
15.02.2018 05:00:00 9,5 9,0 - - 28 15 - - WSW 1007,4 5 0 0,0
15.02.2018 04:00:00 9,8 9,1 - - 28 15 - - WSW 1006,7 10 0 0,0
15.02.2018 03:00:00 10,5 9,4 - - 29 16 - - SW 1006,1 10 0 0,0
15.02.2018 02:00:00 10,0 9,5 - - 26 14 - - WSW 1005,8 10 0 0,0
15.02.2018 01:00:00 10,0 9,8 - - 24 13 - - WSW 1005,2 10 0 0,0
15.02.2018 00:00:00 10,1 9,9 - - 26 14 - - WSW 1005,0 0,2 - 0,0
14.02.2018 23:00:00 10,3 10,1 - - 29 16 - - SW 1003,8 0,2 0 0,2
14.02.2018 22:00:00 10,0 9,8 - - 22 12 - - SSW 1003,6 0,4 0 1,2
14.02.2018 21:00:00 9,0 8,8 - - 22 12 - - S 1003,3 0,4 0 1,2
14.02.2018 20:00:00 7,9 7,6 - - 26 14 - - S 1003,1 0,9 0 1,6
14.02.2018 19:00:00 7,4 7,1 - - 34 18 46 25 S 1003,1 2,0 0 2,2
14.02.2018 18:00:00 7,0 6,6 - - 34 18 46 25 S 1003,0 6 0 0,6
14.02.2018 17:00:00 6,7 6,2 - - 35 19 - - S 1003,3 7 0 1,2
14.02.2018 16:00:00 6,4 5,7 - - 39 21 48 26 SSE 1003,6 7 0 0,4
14.02.2018 15:00:00 6,0 5,1 - - 42 23 57 31 SSE 1003,5 10 0 0,0
14.02.2018 14:00:00 5,7 4,8 - - 44 24 61 33 SSE 1003,7 10 0 0,2
14.02.2018 13:00:00 5,6 4,4 - - 44 24 65 35 SSE 1004,2 10 0 0,4
14.02.2018 12:00:00 5,1 3,8 - - 44 24 67 36 SSE 1004,9 10 0 0,8
14.02.2018 11:00:00 4,8 3,5 - - 44 24 68 37 SSE 1005,2 10 0 0,4
14.02.2018 10:00:00 4,5 3,2 - - 46 25 68 37 SSE 1005,6 11 0 -
14.02.2018 09:00:00 4,2 2,5 5,5 8,0 39 21 70 38 SSE 1006,0 10 0 0,4
14.02.2018 08:00:00 4,5 1,3 - - 42 23 68 37 S 1006,1 10 0 0,0
14.02.2018 07:00:00 5,1 -0,3 - - 34 18 57 31 SSE 1006,4 10 0 0,0
14.02.2018 06:00:00 5,3 -0,4 - - 24 13 - - S 1007,3 10 0 0,0
14.02.2018 05:00:00 5,4 -0,7 - - 21 11 - - S 1007,9 10 0 0,0
14.02.2018 04:00:00 5,3 1,0 - - 15 8 - - S 1008,7 10 0 0,0
14.02.2018 03:00:00 2,3 -0,5 - - 8 4 - - SSE 1009,3 10 0 0,0
14.02.2018 02:00:00 2,9 -1,1 - - 5 3 - - SSE 1009,7 10 0 0,0
14.02.2018 01:00:00 2,9 -0,7 - - 4 2 - - ENE 1009,6 10 0 0,0
14.02.2018 00:00:00 3,5 -1,2 - - 9 5 - - NW 1009,7 10 - 0,0
13.02.2018 23:00:00 4,5 -1,6 - - 13 7 - - NW 1009,8 10 0 0,0
13.02.2018 22:00:00 4,9 -2,2 - - 15 8 - - NW 1009,5 10 0 0,0
13.02.2018 21:00:00 5,1 -2,9 - - 18 10 - - NW 1008,7 10 0 0,0
13.02.2018 20:00:00 5,4 -1,2 - - 18 10 - - NW 1008,1 10 0 0,0
13.02.2018 19:00:00 5,5 -0,5 - - 26 14 46 25 NW 1007,2 10 0 0,0
13.02.2018 18:00:00 5,5 0,6 - - 28 15 50 27 NW 1006,0 10 0 0,0
13.02.2018 17:00:00 5,9 1,5 - - 31 17 55 30 NW 1004,9 10 0 1,2
13.02.2018 16:00:00 5,3 2,5 - - 29 16 55 30 WNW 1003,7 10 12 0,4
13.02.2018 15:00:00 7,3 2,6 - - 35 19 65 35 WNW 1002,1 10 42 0,0
13.02.2018 14:00:00 7,7 2,8 - - 41 22 65 35 WNW 1001,2 10 42 0,0

tt = temperature
td = dewpoint
tt -20cm = temperature -20cm
tt -100cm = temperature -100cm
ff = wind speed
fx = gusts
dd = wind direction
ppp = reduced air pressure
vv = visibility
sd = sunshine duration
rr = precipitation

Next stations